Date String (YYYY-MM-DD hh:mm:ss) UTC,Instrument flags,Ambient pressure (hPa),Sample flow (lpm),Bypass flow (lpm),Sample temperature (°C),Ambient temperature (°C),ASC tube jacket temperature (°C),LED temperature (°C),Box temperature (°C),Sample RH (%),Span deviation,Mass concentration (μg/m³),Mass concentration (μg/m³),Mass concentration (μg/m³)
DateTimeUTC,F1_M11,P_M11,Q1_M11,Q2_M11,T1_M11,T2_M11,T3_M11,T4_M11,T5_M11,U1_M11,ZSPAN_M11,X2_M11,X0_M11,X1_M11
2022-03-16 15:00:00,,0823.0,5.00,0.00,25.2,24.4,00.0,34.3,27.0,10.1,0000.0,0004.65,0012.05,0003.94
2022-03-16 15:01:00,,0823.0,5.00,0.00,25.2,24.4,00.0,34.3,27.0,10.2,0000.0,0004.49,0011.57,0003.81
2022-03-16 15:02:00,,0823.0,5.00,0.00,25.2,24.4,00.0,34.3,27.0,10.3,0000.0,0004.33,0011.11,0003.65
2022-03-16 15:03:00,,0823.0,5.01,0.00,25.2,24.4,00.0,34.2,27.0,10.5,0000.0,0004.12,0010.81,0003.49
2022-03-16 15:04:00,,0822.9,5.00,0.00,25.2,24.4,00.0,34.2,27.0,10.3,0000.0,0003.99,0009.94,0003.36
2022-03-16 15:05:00,,0823.0,4.99,0.00,25.2,24.4,00.0,34.2,27.0,10.1,0000.0,0003.92,0010.02,0003.28
2022-03-16 15:06:00,,0823.0,5.00,0.00,25.2,24.4,00.0,34.2,27.0,10.0,0000.0,0003.82,0009.99,0003.18
2022-03-16 15:07:00,,0823.0,4.98,0.00,25.2,24.4,00.0,34.2,27.0,10.2,0000.0,0003.73,0009.25,0003.10
2022-03-16 15:08:00,,0823.0,5.00,0.00,25.2,24.4,00.0,34.2,27.0,10.3,0000.0,0003.68,0009.88,0003.04
2022-03-16 15:09:00,,0823.0,5.01,0.00,25.2,24.4,00.0,34.2,27.0,10.2,0000.0,0003.68,0010.23,0003.05
2022-03-16 15:10:00,,0822.9,5.01,0.00,25.2,24.5,00.0,34.2,27.0,10.2,0000.0,0003.68,0009.91,0003.09
2022-03-16 15:11:00,,0823.0,4.98,0.00,25.2,24.5,00.0,34.2,27.1,10.2,0000.0,0003.68,0009.87,0003.13
2022-03-16 15:12:00,,0823.0,5.00,0.00,25.2,24.5,00.0,34.2,27.1,10.2,0000.0,0003.71,0010.17,0003.18
2022-03-16 15:13:00,,0823.1,5.00,0.00,25.2,24.5,00.0,34.2,27.1,10.3,0000.0,0003.77,0010.88,0003.22
2022-03-16 15:14:00,,0823.1,5.01,0.00,25.2,24.5,00.0,34.2,27.1,10.3,0000.0,0003.84,0010.48,0003.27
2022-03-16 15:15:00,,0823.2,5.00,0.00,25.2,24.5,00.0,34.2,27.1,10.3,0000.0,0003.90,0011.05,0003.33
2022-03-16 15:16:00,,0823.1,5.00,0.00,25.2,24.5,00.0,34.2,27.1,10.2,0000.0,0003.91,0011.09,0003.37
2022-03-16 15:17:00,,0823.1,4.99,0.00,25.2,24.5,00.0,34.2,27.0,10.1,0000.0,0003.91,0010.99,0003.40
2022-03-16 15:18:00,,0823.1,5.01,0.00,25.2,24.5,00.0,34.2,27.0,10.1,0000.0,0003.94,0010.84,0003.42
2022-03-16 15:19:00,,0823.1,4.98,0.00,25.2,24.4,00.0,34.2,26.9,10.4,0000.0,0003.97,0010.23,0003.45
2022-03-16 15:20:00,,0823.1,5.00,0.00,25.2,24.4,00.0,34.2,26.9,10.7,0000.0,0003.98,0009.94,0003.46
2022-03-16 15:21:00,,0823.1,5.00,0.00,25.2,24.4,00.0,34.2,26.9,10.7,0000.0,0004.00,0010.32,0003.47
2022-03-16 15:22:00,,0823.0,5.01,0.00,25.2,24.4,00.0,34.2,26.9,10.5,0000.0,0004.04,0010.84,0003.46
2022-03-16 15:23:00,,0823.1,4.99,0.00,25.1,24.4,00.0,34.2,26.9,10.4,0000.0,0004.00,0010.67,0003.43
2022-03-16 15:24:00,,0823.0,5.01,0.00,25.1,24.4,00.0,34.2,26.9,10.3,0000.0,0003.95,0009.89,0003.39
2022-03-16 15:25:00,,0823.1,5.00,0.00,25.1,24.4,00.0,34.2,26.9,10.4,0000.0,0003.90,0009.88,0003.35
2022-03-16 15:26:00,,0823.0,4.99,0.00,25.1,24.4,00.0,34.1,26.9,10.4,0000.0,0003.84,0009.29,0003.30
2022-03-16 15:27:00,,0823.0,5.00,0.00,25.1,24.4,00.0,34.1,26.8,10.5,0000.0,0003.81,0008.89,0003.24
2022-03-16 15:28:00,,0823.1,5.01,0.00,25.1,24.4,00.0,34.1,26.8,10.6,0000.0,0003.79,0009.56,0003.20
2022-03-16 15:29:00,,0823.1,5.00,0.00,25.1,24.3,00.0,34.1,26.8,10.6,0000.0,0003.80,0009.66,0003.17
2022-03-16 15:30:00,,0823.1,5.00,0.00,25.1,24.3,00.0,34.1,26.8,10.7,0000.0,0003.79,0009.65,0003.15
2022-03-16 15:31:00,,0823.1,4.99,0.00,25.1,24.3,00.0,34.1,26.8,10.9,0000.0,0003.76,0010.08,0003.09
2022-03-16 15:32:00,,0823.1,5.00,0.00,25.1,24.3,00.0,34.1,26.9,10.6,0000.0,0003.73,0010.18,0003.01
2022-03-16 15:33:00,,0823.1,5.01,0.00,25.1,24.3,00.0,34.1,26.9,10.5,0000.0,0003.67,0009.79,0002.91
2022-03-16 15:34:00,,0823.1,5.00,0.00,25.1,24.4,00.0,34.1,26.9,10.6,0000.0,0003.65,0010.15,0002.82
2022-03-16 15:35:00,,0823.2,5.00,0.00,25.1,24.4,00.0,34.1,26.9,10.8,0000.0,0003.62,0010.24,0002.77
2022-03-16 15:36:00,,0823.1,5.01,0.00,25.1,24.3,00.0,34.1,26.9,10.7,0000.0,0003.60,0010.67,0002.73
2022-03-16 15:37:00,,0823.1,4.98,0.00,25.1,24.4,00.0,34.1,26.9,10.7,0000.0,0003.59,0010.78,0002.67
2022-03-16 15:38:00,,0823.1,5.01,0.00,25.1,24.4,00.0,34.1,26.9,10.6,0000.0,0003.57,0011.35,0002.65
2022-03-16 15:39:00,,0823.1,5.00,0.00,25.1,24.4,00.0,34.1,26.9,10.6,0000.0,0003.55,0011.50,0002.62
2022-03-16 15:40:00,,0823.1,5.00,0.00,25.1,24.4,00.0,34.1,26.9,10.5,0000.0,0003.51,0011.22,0002.57
2022-03-16 15:41:00,,0823.1,5.01,0.00,25.1,24.4,00.0,34.1,26.9,10.7,0000.0,0003.46,0011.13,0002.54
2022-03-16 15:42:00,,0823.1,5.01,0.00,25.1,24.4,00.0,34.1,27.0,10.5,0000.0,0003.43,0010.69,0002.49
2022-03-16 15:43:00,,0823.1,4.99,0.00,25.1,24.4,00.0,34.1,27.0,10.5,0000.0,0003.40,0010.25,0002.47
2022-03-16 15:44:00,,0823.1,5.01,0.00,25.1,24.5,00.0,34.1,27.0,10.4,0000.0,0003.38,0010.38,0002.48
2022-03-16 15:45:00,,0823.1,5.00,0.00,25.1,24.5,00.0,34.1,27.0,10.5,0000.0,0003.36,0009.66,0002.47
2022-03-16 15:46:00,,0823.1,5.01,0.00,25.1,24.4,00.0,34.1,26.9,10.4,0000.0,0003.35,0009.55,0002.47
2022-03-16 15:47:00,,0823.1,4.99,0.00,25.1,24.4,00.0,34.1,26.9,10.4,0000.0,0003.34,0009.12,0002.46
2022-03-16 15:48:00,,0823.1,5.00,0.00,25.1,24.4,00.0,34.1,26.9,10.5,0000.0,0003.33,0008.99,0002.47
2022-03-16 15:49:00,,0823.1,5.00,0.00,25.1,24.4,00.0,34.1,26.9,10.6,0000.0,0003.34,0008.31,0002.47
2022-03-16 15:50:00,,0823.2,5.00,0.00,25.1,24.4,00.0,34.1,26.9,10.6,0000.0,0003.34,0007.45,0002.48
2022-03-16 15:51:00,,0823.1,4.99,0.00,25.1,24.4,00.0,34.1,26.8,10.4,0000.0,0003.37,0007.48,0002.51
2022-03-16 15:52:00,,0823.1,5.00,0.00,25.1,24.3,00.0,34.1,26.8,10.4,0000.0,0003.42,0007.64,0002.52
2022-03-16 15:53:00,,0823.1,5.01,0.00,25.0,24.3,00.0,34.1,26.8,10.5,0000.0,0003.48,0007.80,0002.54
2022-03-16 15:54:00,,0823.1,5.00,0.00,25.0,24.3,00.0,34.0,26.8,10.6,0000.0,0003.53,0007.74,0002.55
2022-03-16 15:55:00,,0823.1,5.00,0.00,25.0,24.3,00.0,34.0,26.8,10.5,0000.0,0003.55,0007.59,0002.53
2022-03-16 15:56:00,,0823.2,4.99,0.00,25.0,24.3,00.0,34.0,26.8,10.5,0000.0,0003.54,0007.45,0002.54
2022-03-16 15:57:00,,0823.1,5.01,0.00,25.0,24.3,00.0,34.0,26.7,10.6,0000.0,0003.55,0007.52,0002.53
2022-03-16 15:58:00,,0823.1,5.01,0.00,25.0,24.3,00.0,34.0,26.7,10.6,0000.0,0003.56,0007.83,0002.51
2022-03-16 15:59:00,,0823.2,5.00,0.00,25.0,24.3,00.0,34.0,26.7,10.8,0000.0,0003.58,0008.30,0002.50
